COSMOS 2545 (760)

Last updated on Mon Sep 07 2026 00:03:21 GMT+0000 (Coordinated Universal Time)

1 45358U 20018A 26249.40626497 -.00000025 00000+0 00000+0 0 9993 2 45358 64.3015 309.5618 0011578 235.0632 124.9004 2.13102517 50390
UTC large
Height (km)
Speed (km/s)
/
Latitude / Longitude
Inclination (degrees)
Orbital Period (minutes)
Azimuth
Elevation
Range (km)
Doppler Factor

Next 0 passes for location: London (51.5072 / 0.1276)

No passes found over London.
COSMOS 2545 (760)